Tracking 29892 objects as of 21-Nov-2024
HD Live streaming from Space Station
objects crossing your sky now

DELTA 1 DEB

Track DELTA 1 DEB now!
10-day predictions


NORAD ID: 37647
Int'l Code: 1978-026JJ
Perigee: 834.5 km
Apogee: 1,180.9 km
Inclination: 98.8 °
Period: 105.1 minutes
Semi major axis: 7378 km
RCS: 0.0126 m2 (small)
Launch date: March 5, 1978
Source: United States (US)
Launch site: AIR FORCE WESTERN TEST RANGE (AFWTR)

Note: This is SATELLITE DEBRIS
Your satellite tracking list
Your tracking list is empty




NASA's NSSDC Master Catalog

Two Line Element Set (TLE):
1 37647U 78026JJ  24315.48651846  .00003100  00000-0  29562-2 0  9997
2 37647  98.8191  43.1013 0234690  90.4287 272.3755 13.69718746556583
Source of the keplerian elements: AFSPC